• In Latvia
  • List of Countries
  • For 7 days
  • Water Temperature
  • Satellite Maps
  • Weather Map
  • Weather Widgets
  • user-avatar
    Login

    Hourly Weather Ordino

    Today, 30 April, Sunday

    Time Temperature Precipitation Wind Pressure Humidity
    00:00 +1°C° 0 mm 2 mps 628 mmHg 92%
    01:00 +1°C° 0 mm 2 mps 627 mmHg 92%
    02:00 +1°C° 0 mm 2 mps 627 mmHg 92%
    03:00 +1°C° 0 mm 2 mps 627 mmHg 92%
    04:00 +2°C° 0 mm 2 mps 627 mmHg 89%
    05:00 +2°C° 0 mm 2 mps 627 mmHg 87%
    06:00 +3°C° 0 mm 2 mps 627 mmHg 83%
    07:00 +4°C° 0 mm 3 mps 628 mmHg 77%
    08:00 +7°C° 0 mm 3 mps 628 mmHg 71%
    09:00 +8°C° 0 mm 3 mps 628 mmHg 64%
    10:00 +8°C° 0.1 mm 4 mps 628 mmHg 62%
    11:00 +10°C° 0.1 mm 4 mps 628 mmHg 59%
    12:00 +11°C° 0.1 mm 4 mps 628 mmHg 57%
    13:00 +10°C° 0.6 mm 4 mps 628 mmHg 63%
    14:00 +10°C° 0.6 mm 4 mps 627 mmHg 69%
    15:00 +8°C° 0.6 mm 4 mps 627 mmHg 75%
    16:00 +6°C° 0.9 mm 4 mps 627 mmHg 82%
    17:00 +4°C° 0.9 mm 4 mps 627 mmHg 88%
    18:00 +3°C° 0.9 mm 3 mps 627 mmHg 94%
    19:00 +2°C° 0.6 mm 3 mps 627 mmHg 94%
    20:00 +2°C° 0.6 mm 2 mps 627 mmHg 94%
    21:00 +2°C° 0.6 mm 1 mps 628 mmHg 94%
    22:00 +1°C° 0.2 mm 1 mps 628 mmHg 94%
    23:00 +1°C° 0.2 mm 1 mps 628 mmHg 94%

    Tomorrow, 1 May, Monday

    Time Temperature Precipitation Wind Pressure Humidity
    00:00 -2°C° 0.2 mm 2 mps 628 mmHg 94%
    01:00 -3°C° 0 mm 2 mps 628 mmHg 93%
    02:00 -3°C° 0 mm 2 mps 628 mmHg 92%
    03:00 -4°C° 0 mm 2 mps 629 mmHg 92%
    04:00 -4°C° 0 mm 2 mps 629 mmHg 89%
    05:00 -3°C° 0 mm 2 mps 630 mmHg 86%
    06:00 -3°C° 0 mm 2 mps 630 mmHg 83%
    07:00 -1°C° 0 mm 2 mps 631 mmHg 74%
    08:00 +2°C° 0 mm 2 mps 632 mmHg 66%
    09:00 +5°C° 0 mm 2 mps 633 mmHg 58%
    10:00 +6°C° 0 mm 2 mps 634 mmHg 55%
    11:00 +7°C° 0 mm 2 mps 634 mmHg 53%
    12:00 +8°C° 0 mm 2 mps 635 mmHg 50%
    13:00 +8°C° 0 mm 2 mps 634 mmHg 52%
    14:00 +7°C° 0 mm 2 mps 634 mmHg 53%
    15:00 +7°C° 0 mm 2 mps 634 mmHg 55%
    16:00 +7°C° 0 mm 2 mps 634 mmHg 60%
    17:00 +7°C° 0 mm 1 mps 634 mmHg 65%
    18:00 +6°C° 0 mm 1 mps 634 mmHg 70%
    19:00 +5°C° 0 mm 1 mps 633 mmHg 76%
    20:00 +3°C° 0 mm 1 mps 633 mmHg 82%
    21:00 +1°C° 0 mm 1 mps 633 mmHg 88%
    22:00 +1°C° 0 mm 1 mps 632 mmHg 88%
    23:00 +1°C° 0 mm 1 mps 632 mmHg 88%

    Day after tomorrow, 2 May, Tuesday

    Time Temperature Precipitation Wind Pressure Humidity
    00:00 +1°C° 0 mm 1 mps 632 mmHg 87%
    01:00 0°C° 0 mm 1 mps 632 mmHg 87%
    02:00 0°C° 0 mm 1 mps 631 mmHg 87%
    03:00 0°C° 0 mm 1 mps 631 mmHg 87%
    04:00 +1°C° 0.1 mm 1 mps 631 mmHg 84%
    05:00 +3°C° 0.1 mm 1 mps 632 mmHg 80%
    06:00 +4°C° 0.1 mm 1 mps 632 mmHg 77%
    07:00 +5°C° 0.2 mm 1 mps 633 mmHg 74%
    08:00 +6°C° 0.2 mm 1 mps 633 mmHg 71%
    09:00 +8°C° 0.2 mm 1 mps 634 mmHg 68%
    10:00 +7°C° 0.3 mm 2 mps 634 mmHg 69%
    11:00 +8°C° 0.3 mm 2 mps 634 mmHg 69%
    12:00 +9°C° 0.3 mm 3 mps 634 mmHg 70%
    13:00 +8°C° 0.8 mm 3 mps 634 mmHg 72%
    14:00 +8°C° 0.8 mm 2 mps 634 mmHg 74%
    15:00 +8°C° 0.8 mm 2 mps 634 mmHg 77%
    16:00 +8°C° 1.1 mm 2 mps 633 mmHg 81%
    17:00 +7°C° 1.1 mm 2 mps 633 mmHg 84%
    18:00 +7°C° 1.1 mm 1 mps 633 mmHg 88%
    19:00 +6°C° 0.5 mm 1 mps 633 mmHg 91%
    20:00 +5°C° 0.5 mm 1 mps 633 mmHg 93%
    21:00 +4°C° 0.5 mm 1 mps 633 mmHg 96%
    22:00 +3°C° 0.1 mm 1 mps 633 mmHg 96%
    23:00 +3°C° 0.1 mm 1 mps 632 mmHg 97%

    3 May, Wednesday

    Time Temperature Precipitation Wind Pressure Humidity
    00:00 +2°C° 0.1 mm 1 mps 632 mmHg 97%
    01:00 +3°C° 0 mm 1 mps 632 mmHg 98%
    02:00 +3°C° 0 mm 1 mps 632 mmHg 98%
    03:00 +3°C° 0 mm 1 mps 632 mmHg 98%
    04:00 +2°C° 0 mm 0 mps 632 mmHg 97%
    05:00 +3°C° 0 mm 0 mps 633 mmHg 97%
    06:00 +3°C° 0 mm 0 mps 633 mmHg 96%
    07:00 +6°C° 0 mm 1 mps 633 mmHg 91%
    08:00 +7°C° 0 mm 1 mps 634 mmHg 86%
    09:00 +8°C° 0 mm 1 mps 634 mmHg 80%
    10:00 +9°C° 0.1 mm 1 mps 634 mmHg 77%
    11:00 +9°C° 0.1 mm 1 mps 634 mmHg 73%
    12:00 +9°C° 0.1 mm 2 mps 634 mmHg 69%
    13:00 +10°C° 0.2 mm 2 mps 634 mmHg 68%
    14:00 +10°C° 0.2 mm 2 mps 634 mmHg 67%
    15:00 +10°C° 0.2 mm 2 mps 634 mmHg 66%
    16:00 +11°C° 0.1 mm 1 mps 634 mmHg 70%
    17:00 +10°C° 0.1 mm 1 mps 633 mmHg 74%
    18:00 +9°C° 0.1 mm 1 mps 633 mmHg 79%
    19:00 +7°C° 0 mm 1 mps 632 mmHg 84%
    20:00 +5°C° 0 mm 1 mps 631 mmHg 90%
    21:00 +3°C° 0 mm 1 mps 631 mmHg 95%
    22:00 +3°C° 0 mm 1 mps 631 mmHg 95%
    23:00 +3°C° 0 mm 1 mps 631 mmHg 95%

    4 May, Thursday

    Time Temperature Precipitation Wind Pressure Humidity
    00:00 +3°C° 0 mm 1 mps 630 mmHg 96%
    01:00 +3°C° 0 mm 1 mps 630 mmHg 96%
    02:00 +3°C° 0 mm 1 mps 630 mmHg 95%
    03:00 +2°C° 0 mm 1 mps 630 mmHg 95%
    04:00 +3°C° 0 mm 1 mps 630 mmHg 93%
    05:00 +4°C° 0 mm 1 mps 630 mmHg 91%
    06:00 +4°C° 0 mm 0 mps 631 mmHg 88%
    07:00 +8°C° 0 mm 1 mps 631 mmHg 78%
    08:00 +10°C° 0 mm 1 mps 632 mmHg 67%
    09:00 +13°C° 0 mm 1 mps 633 mmHg 57%
    10:00 +14°C° 0 mm 2 mps 633 mmHg 54%
    11:00 +15°C° 0 mm 2 mps 633 mmHg 52%
    12:00 +16°C° 0 mm 2 mps 633 mmHg 49%
    13:00 +16°C° 0 mm 2 mps 633 mmHg 51%
    14:00 +16°C° 0 mm 2 mps 633 mmHg 52%
    15:00 +16°C° 0 mm 2 mps 632 mmHg 54%
    16:00 +15°C° 0 mm 2 mps 632 mmHg 60%
    17:00 +14°C° 0 mm 2 mps 632 mmHg 66%
    18:00 +12°C° 0 mm 1 mps 631 mmHg 73%
    19:00 +11°C° 0 mm 1 mps 631 mmHg 79%
    20:00 +9°C° 0 mm 1 mps 631 mmHg 84%
    21:00 +7°C° 0 mm 1 mps 630 mmHg 90%
    22:00 +7°C° 0 mm 1 mps 630 mmHg 90%
    23:00 +7°C° 0 mm 1 mps 630 mmHg 90%

    5 May, Friday

    Time Temperature Precipitation Wind Pressure Humidity
    00:00 +7°C° 0 mm 1 mps 630 mmHg 89%
    01:00 +6°C° 0 mm 1 mps 629 mmHg 87%
    02:00 +6°C° 0 mm 1 mps 629 mmHg 85%
    03:00 +6°C° 0 mm 1 mps 629 mmHg 83%
    04:00 +6°C° 0 mm 2 mps 629 mmHg 79%
    05:00 +7°C° 0 mm 2 mps 630 mmHg 75%
    06:00 +8°C° 0 mm 2 mps 630 mmHg 71%
    07:00 +10°C° 0 mm 2 mps 631 mmHg 62%
    08:00 +13°C° 0 mm 3 mps 632 mmHg 54%
    09:00 +16°C° 0 mm 3 mps 633 mmHg 45%
    10:00 +17°C° 0 mm 3 mps 633 mmHg 43%
    11:00 +18°C° 0 mm 3 mps 633 mmHg 40%
    12:00 +19°C° 0 mm 4 mps 633 mmHg 38%
    13:00 +18°C° 0 mm 4 mps 633 mmHg 41%
    14:00 +17°C° 0 mm 3 mps 632 mmHg 44%
    15:00 +17°C° 0 mm 3 mps 632 mmHg 47%
    16:00 +14°C° 0 mm 3 mps 631 mmHg 52%
    17:00 +13°C° 0 mm 3 mps 631 mmHg 57%
    18:00 +12°C° 0 mm 3 mps 630 mmHg 62%
    19:00 +11°C° 0 mm 3 mps 630 mmHg 65%
    20:00 +9°C° 0 mm 2 mps 629 mmHg 68%
    21:00 +8°C° 0 mm 2 mps 629 mmHg 71%
    22:00 +8°C° 0 mm 2 mps 629 mmHg 71%
    23:00 +8°C° 0 mm 2 mps 629 mmHg 72%
    Show more